ARIANE 2 DEB, 29023

Orbit data source: Space-Track

ARIANE 2 DEB, 29023 is space debris in HEO originally from a launch on Fri, 27 Jan 1989 UTC launched from the French Guiana (FRGUI). Debris objects in space refer to the collection of defunct objects orbiting the Earth. Examples of debris include non-operational satellites, rocket bodies, and fragments generated from explosions, collisions, or faulty payload assembly.

Loading next visibility...
ARIANE 2 DEB details
Identifier
29023, 1989-006AP
Orbit
HEO
Last TLE update3 weeks ago
Origin
Flag of FRArianespace (FR)
ManufacturerEADS/LV
MissionSpacecraft
Bus & MotorUnknown
MassUnknown
Launch date (UTC)
1989-01-27 (36 years ago)
Launch vehicleUnknown
Launch site
French Guiana (FRGUI)
Object type
Payload
Rocket body
Debris
Shape & HBRUnknown
Radar Cross SectionMedium (>0.1 m² and <1 m²)

Expand to show TLE details & history

TLE from 3 weeks ago
0 ARIANE 2 DEB
1 29023U 89006AP  24339.04966272 -.00000001  00000-0  23136-2 0  9995
2 29023   7.4477 188.0600 7079053 234.5942 352.4401  2.25074838 87474
Epoch: 2024-12-04T01:11Z
Definitive object data (Epoch: 2024-12-04T01:11:30.859Z)
Latitude0.11958°
Longitude-84.0261°
Altitude2,353.272 km
Speed8.665 km/s
True Right ascension00h 28m 48s
True Declination0° 07' 08"
Sunlit
Object was in daylight at TLE epoch
Visualization TLE readout
Latitude3.15678°
Longitude113.15611°
Altitude17,738.432 km
Speed4.105 km/s
Apparent Right ascension12h 51m 42s
Apparent Declination-6° 56' 35"
Sunlit
Object is in daylight
Visualization observer readout
Local Sidereal Time18:01:49
Azimuth256.636° W
Elevation4.982°
Doppler factor1
Orbital elements
Apogee altitude35,636.641 km
Perigee altitude807.445 km
Semi-major axis24,600.18 km
Eccentricity0.7079053
Inclination7.4477°
RAAN188.06°
Arg. of periapsis234.5942°
True anomaly305.27311°
Mean anomaly352.4401°
Eccentric anomaly335.83847°
Mean motion0.56252 °/min
BSTAR0.0023136
Orbital period639.98 mins
Loading maneuver chart data...
Loading historical data...
Loading historical data...
Loading historical data...
Loading historical data...
Loading historical data...
Loading historical data...
Loading historical data...

ARIANE 2 DEB Visibility forecast

Observer location: undefined°, undefined

Span
Click to sort rows by Start time (UTC) header in descending order
Start Az.
Max El. time (UTC)
Max El. Az.
Max El.
End time (UTC)
End Az.
129 mins2024-12-26 19:07:17.687Z255.574° W2024-12-26 20:01:17.687Z257.1° W12.658°2024-12-26 21:16:17.687Z262.167° W
202 mins2024-12-27 15:17:17.687Z234.347° WSW2024-12-27 17:32:17.687Z220.325° SW33.42°2024-12-27 18:39:17.687Z228.228° WSW
|